HAWK-6A

Last updated on Tue Sep 22 2026 00:03:52 GMT+0000 (Coordinated Universal Time)

1 55327U 23011D 26264.09716345 .00003150 00000+0 13667-3 0 9998 2 55327 40.4978 150.8022 0003662 309.1309 50.9175 15.23651180202481
UTC large
Height (km)
Speed (km/s)
/
Latitude / Longitude
Inclination (degrees)
Orbital Period (minutes)
Azimuth
Elevation
Range (km)
Doppler Factor

Next 0 passes for location: London (51.5072 / 0.1276)

No passes found over London.
HAWK-6A